Weather WX

World > North America > United States > Ohio

Otterbien Home, Ohio Regional Weather

Lat: 39.42N, Lon: 84.16W
Wx Zone: OHZ071
Warning FLW WEATHER ALERT - FLASH FLOOD WATCH (More Info. Click Here) Warning
Feedback

Otterbien Home, OH Regional Weather

Expires:201906192200;;749152
ASUS41 KCLE 192102
RWRCLE
OHIO REGIONAL WEATHER ROUNDUP
NATIONAL WEATHER SERVICE CLEVELAND, OH
500 PM EDT WED JUN 19 2019

NOTE: "FAIR" INDICATES FEW OR NO CLOUDS BELOW 12,000 FEET WITH NO
SIGNIFICANT WEATHER AND/OR OBSTRUCTIONS TO VISIBILITY.


OHZ042-051>053-060>062-070>072-077>081-192200-
  SOUTHWEST OHIO
  
CITY           SKY/WX    TMP DP  RH WIND       PRES   REMARKS
CINC-COVINGTON PTSUNNY   81  70  69 S12       29.67F                  
CINC-LUNKEN    FAIR      82  70  66 S10       29.66F                  
HAMILTON       PTSUNNY   79  70  74 E6        29.67F                  
DAYTON         CLOUDY    82  68  62 SW9       29.68F                  
WRIGHT-PAT AFB PTSUNNY   81  68  63 S8        29.67F                  
DAYTON GENERAL FAIR      82  69  64 SW6       29.67F                  
WILMINGTON     FAIR      80  69  69 SW10      29.68F                  
$$


SKY/WX - Weather  TMP - Temperature  DP - Dew Point  RH - Relative Humidity
WIND - Wind Direction/Speed PRES - Barometric Pressure VSB - Visibility
WCI - Wind Chill Index E13G22 Wind - East Wind 13 mph/Gusts of 22 mph